Flag for Honduras Weather past 2 weeks in Choloma, Honduras

Now
79 °F

Passing clouds.


Feels Like: 83 °F
Forecast: 75 / 85 °F
Wind: 3 mph from Southeast

Location: La Mesa San Pedro Sula

Current Time: Jul 30, 2015 at 11:14:58 PM

Latest Report: Jul 30, 2015 at 11:00 PM


Visibility: N/A

Pressure: 30.01 "Hg

Humidity: 100%

Dew point: 79 °F

Location of CholomaLocation

Historic Weather in Choloma — Graph

°F

Choloma temperature yesterday

Maximum temperature yesterday: 93 °F (at 3:00 PM)
Minimum temperature yesterday: 77 °F (at 6:00 AM)
Average temperature yesterday: 85 °F

Past Weeks' High & Low Weather Summary

 TemperatureHumidityPressure
High95 °F (Jul 16, 2:00 PM)100% (Jul 15, 10:00 PM)30.04 "Hg (Jul 15, 10:00 PM)
Low73 °F (Jul 19, 4:00 AM)50% (Jul 17, 1:00 PM)29.83 "Hg (Jul 17, 4:00 PM)
Average85 °F82%29.93 "Hg
* Reported Jul 15 10:00 PM — Jul 30 10:00 PM, Choloma, Weather by CustomWeather, © 2015

Note: Actual official high and low records may vary slightly from our data, if they occured in-between our weather recording intervals... More about our weather records

Advertising

Choloma weather history for previous 24 hours

 ConditionsComfort  
Time TempWeatherWind HumidityBarometerVisibility
10:00 PM
Thu, Jul 30
81 °FPassing clouds.3 mph100%29.98 "HgN/A
9:00 PM81 °FPassing clouds.5 mph100%29.98 "HgN/A
8:00 PM81 °FPassing clouds.7 mph94%29.95 "HgN/A
7:00 PM81 °FPassing clouds.5 mph84%29.92 "HgN/A
6:00 PM79 °FBroken clouds.3 mph94%29.92 "HgN/A
5:00 PM77 °FPartly sunny.6 mph100%29.89 "HgN/A
4:00 PM86 °FScattered showers. Partly sunny.18 mph62%29.89 "Hg3 mi
3:00 PM93 °FPassing clouds.18 mph63%29.86 "HgN/A
2:00 PM93 °FScattered clouds.12 mph56%29.89 "HgN/A
1:00 PM95 °FScattered clouds.12 mph53%29.92 "HgN/A
12:00 PM91 °FPassing clouds.9 mph63%29.95 "HgN/A
11:00 AM90 °FPassing clouds.2 mph67%29.95 "HgN/A
10:00 AM90 °FScattered clouds.3 mph67%29.98 "HgN/A
9:00 AM86 °FPassing clouds.5 mph79%29.98 "HgN/A
8:00 AM82 °FPassing clouds.6 mph89%29.98 "HgN/A
7:00 AM79 °FScattered clouds.2 mph100%29.98 "HgN/A
12:00 AM81 °FThunderstorms. Overcast.3 mph94%29.98 "HgN/A
11:00 PM
Wed, Jul 29
81 °FPassing clouds.No wind94%30.01 "HgN/A
Weather by CustomWeather, © 2015

See weather overviewHow to use our weather pages